sat.trackr.live / text

‹ back to catalog

STARLINK-3892

NORAD 52488 · 2022-049AP

PAYLOAD ACTIVE UNKNOWN

§ Identity

Operator
Country
US
Launch date
2022-05-06
Launch site
AFETR
Launch vehicle
Mass (kg)
RCS (m²)

Purposes: comms

External: N2YO · Heavens-Above · Gunter

§ Orbital elements

Epoch: 2026-09-20T00:10:45.234336Z

Period
93.90 min
Inclination
53.1590°
Eccentricity
0.0001267
Mean motion
15.33550154 rev/d
Perigee alt
464.4 km
Apogee alt
466.1 km
Semi-major
6,843.4 km
B*
3.2449e-5
RAAN
256.1044°
Arg perigee
87.2937°
Mean anomaly
272.8210°
Rev number
24,173

§ Raw data

STARLINK-38921 52488U 22049AP  26263.00746799  .00000695  00000+0  32449-4 0  99902 52488  53.1590 256.1044 0001267  87.2937 272.8210 15.33550154241737

JSON: /api/v1/satellites/52488 · /tle

For live sub-satellite position, see the globe view (requires WebGL).

§ Visibility from observer

Set your observer location to see the next 7 days of passes ≥ 10°. The values pass through the URL so the page stays shareable.

No JS? Fill the form by hand. The geolocation button needs JavaScript.